Location: Lafig�re
(44.4503°N, 4.0357°E)
Time: 21:40:51
(UTC+00:00)

Vanguard 2 Rocket - Visible Passes

Search period start: 19 January 2021 00:00
Search period end: 29 January 2021 00:00
Orbit: 554 x 3325 km, 32.9° (Epoch: 18 January)

Date Brightness Start Highest point End Pass type
(mag) Time Alt. Az. Time Alt. Az. Time Alt. Az.
19 Jan 8.1 18:32:34 10° WSW 18:38:23 26° S 18:40:40 20° SSE visible
20 Jan 8.6 17:31:35 10° WSW 17:39:00 30° S 17:43:50 10° ESE visible
20 Jan 8.6 19:47:12 10° WSW 19:50:21 18° SSW 19:50:21 18° SSW visible
21 Jan 8.2 18:46:10 10° WSW 18:52:02 26° SSW 18:54:15 20° SSE visible
22 Jan 8.6 17:44:55 10° WSW 17:52:42 32° S 17:57:41 10° SE visible
22 Jan 9.0 20:01:30 10° WSW 20:03:58 14° SW 20:03:58 14° SW visible
23 Jan 8.4 18:59:58 10° WSW 19:05:34 23° SSW 19:07:54 18° S visible
24 Jan 8.7 17:58:27 10° WSW 18:06:18 31° SSW 18:11:22 10° SE visible
25 Jan 8.8 19:14:05 10° WSW 19:18:56 18° SSW 19:21:40 13° S visible
26 Jan 8.9 18:12:10 10° WSW 18:19:47 27° SSW 18:24:47 10° SSE visible
27 Jan 9.1 17:10:11 10° WSW 17:20:19 36° SSW 17:26:29 10° SE visible
27 Jan 9.2 19:28:53 10° WSW 19:32:07 13° SW 19:34:49 10° SSW visible
28 Jan 9.1 18:26:08 10° WSW 18:33:04 22° SSW 18:37:51 10° SSE visible
